Vancleve, KY

9:02 PM EST on January 16, 2017 (GMT -0500)
Carroll

Weather History for KJKL - May, 2013

Change the Weather History Date:

Wednesday, May 22, 2013

  Actual Average Record
Temperature  
Mean Temperature 72 °F 66 °F  
Max Temperature 83 °F 76 °F 86 °F (2007)
Min Temperature 60 °F 56 °F 38 °F (1993)
Degree Days  
Heating Degree Days 0 3  
Month to date heating degree days 79 84  
Since 1 July heating degree days 4341 4205  
Cooling Degree Days 7 3  
Month to date cooling degree days 60 55  
Year to date cooling degree days 100 101  
Growing Degree Days 21 (Base 50)    
Moisture  
Dew Point 61 °F    
Average Humidity 70    
Maximum Humidity 93    
Minimum Humidity 47    
Precipitation  
Precipitation 0.20 in 0.17 in 1.44 in (2001)
Month to date precipitation 4.17 3.64  
Year to date precipitation 20.14 18.95  
Snow  
Snow 0.00 in 0.00 in - ()
Month to date snowfall 0.0 0.0  
Since 1 July snowfall 20.0 23.5  
Snow Depth 0.00 in    
Sea Level Pressure  
Sea Level Pressure 29.87 in    
Wind  
Wind Speed 2 mph (SW)    
Max Wind Speed 12 mph    
Max Gust Speed 23 mph    
Visibility 9 miles    
Events Rain , Thunderstorm    
T = Trace of Precipitation, MM = Missing Value Source: NWS Daily Summary

Daily Weather History Graph

Daily Weather History Graph

Search for Another Location

Airport or City:

Trip Planner

Search our weather history database for the weather conditions in past years. The results will help you decide how hot, cold, wet, or windy it might be!

Date:

Astronomy

May. 22, 2013 Rise Set
Actual Time 6:18 AM EDT 8:41 PM EDT
Civil Twilight 5:48 AM EDT 9:11 PM EDT
Nautical Twilight 5:11 AM EDT 9:48 PM EDT
Astronomical Twilight 4:31 AM EDT 10:29 PM EDT
Moon 6:05 PM EDT (5/22) 4:18 AM EDT (5/22)
Length of Visible Light 15h 23m
Length of Day
14h 23m
Waxing Gibbous, 91% of the Moon is Illuminated
May 22
Waxing Gibbous
May 25
Full
May 31
Last Quarter
Jun 8
New
Jun 16
First Quarter

Hourly Weather History & Observations

Time (EDT) Temp. Heat Index Dew Point Humidity Pressure Visibility Wind Dir Wind Speed Gust Speed Precip Events Conditions
12:53 AM 62.1 °F - 60.1 °F 93% 29.92 in 10.0 mi SSE 4.6 mph - N/A   Clear
1:53 AM 62.1 °F - 60.1 °F 93% 29.90 in 10.0 mi Calm Calm - N/A   Clear
2:53 AM 62.1 °F - 59.0 °F 90% 29.88 in 10.0 mi Calm Calm - N/A   Clear
3:13 AM 60.8 °F - 59.0 °F 94% 29.91 in 10.0 mi Variable 3.5 mph - N/A   Partly Cloudy
3:53 AM 63.0 °F - 57.9 °F 84% 29.86 in 10.0 mi Variable 3.5 mph - N/A   Mostly Cloudy
4:53 AM 63.0 °F - 57.9 °F 84% 29.86 in 10.0 mi Calm Calm - N/A   Partly Cloudy
5:53 AM 60.1 °F - 57.9 °F 93% 29.88 in 10.0 mi Calm Calm - N/A   Clear
6:53 AM 62.1 °F - 57.9 °F 86% 29.90 in 10.0 mi Calm Calm - N/A   Clear
7:53 AM 64.0 °F - 59.0 °F 84% 29.91 in 10.0 mi Calm Calm - N/A   Clear
8:53 AM 66.9 °F - 60.1 °F 79% 29.90 in 10.0 mi Calm Calm - N/A   Clear
9:53 AM 70.0 °F - 62.1 °F 76% 29.90 in 10.0 mi Variable 4.6 mph - N/A   Clear
10:53 AM 75.0 °F - 64.0 °F 69% 29.90 in 10.0 mi Variable 4.6 mph - N/A   Clear
11:53 AM 78.1 °F - 64.9 °F 64% 29.89 in 10.0 mi Variable 4.6 mph - N/A   Clear
12:53 PM 80.1 °F 81.7 °F 64.0 °F 58% 29.88 in 10.0 mi Variable 4.6 mph - N/A   Mostly Cloudy
1:53 PM 81.0 °F 82.5 °F 64.0 °F 56% 29.87 in 10.0 mi Variable 4.6 mph - N/A   Clear
2:53 PM 80.1 °F 80.9 °F 60.1 °F 50% 29.86 in 10.0 mi Variable 6.9 mph - N/A   Partly Cloudy
3:53 PM 82.9 °F 83.3 °F 61.0 °F 47% 29.83 in 10.0 mi Variable 6.9 mph - N/A   Partly Cloudy
4:53 PM 79.0 °F - 57.9 °F 48% 29.82 in 10.0 mi Variable 6.9 mph - N/A   Clear
5:53 PM 78.1 °F - 60.1 °F 54% 29.82 in 10.0 mi Variable 3.5 mph - N/A   Clear
6:53 PM 77.0 °F - 60.1 °F 56% 29.81 in 10.0 mi Calm Calm - N/A   Clear
7:53 PM 73.9 °F - 61.0 °F 64% 29.82 in 10.0 mi Calm Calm - N/A   Clear
8:53 PM 70.0 °F - 62.1 °F 76% 29.83 in 10.0 mi WNW 4.6 mph - 0.00 in   Overcast
9:42 PM 68.0 °F - 62.6 °F 83% 29.88 in 10.0 mi Calm Calm - N/A Thunderstorm Mostly Cloudy
9:53 PM 68.0 °F - 63.0 °F 84% 29.85 in 10.0 mi Calm Calm - N/A   Mostly Cloudy
10:16 PM 68.0 °F - 62.6 °F 83% 29.89 in 10.0 mi Calm Calm - N/A Thunderstorm Overcast
10:39 PM 68.0 °F - 62.6 °F 83% 29.89 in 10.0 mi Calm Calm - N/A   Overcast
10:53 PM 68.0 °F - 62.1 °F 81% 29.86 in 10.0 mi Calm Calm - N/A   Overcast
11:11 PM 64.4 °F - 62.6 °F 94% 29.90 in 2.0 mi Calm Calm - 0.05 in Rain , Thunderstorm Heavy Thunderstorms and Rain
11:22 PM 64.4 °F - 64.4 °F 100% 29.90 in 4.0 mi Variable 3.5 mph - 0.10 in Rain , Thunderstorm Light Thunderstorms and Rain
11:41 PM 64.4 °F - 62.6 °F 94% 29.90 in 10.0 mi Calm Calm - 0.12 in Thunderstorm Thunderstorm
11:53 PM 64.9 °F - 63.0 °F 93% 29.86 in 5.0 mi Calm Calm - 0.13 in Rain , Thunderstorm Rain